Zurück zum Katalog

STARLINK-5660

AktivKommunikationVLEO
NORAD 55335·PAYLOAD·🇺🇸 United States

Gestartet Jan 26, 2023 von Cape Canaveral Space Force Station

Loading…

Nächste Überflüge (nächste 24 Stunden)

TLE

AktuellSource: CelesTrak SupGP

Epoche: Sep 14, 2026, 21:04 UTC

1 55335C 23013E   26257.87826389 -.00033308  00000+0 -12064-2 0  2573
2 55335  43.0024 315.2106 0001205 281.4302 113.3441 15.27597039    18

Verfolge STARLINK-5660 in Echtzeit mit AllMySat

Download on the App Store